Location: Peebles
(55.6412°N, 3.1714°W)
Time: 12:51:08
(UTC+00:00)

CUTE-I - Pass Details

Date: 13 December 2023
Orbit: 807 x 823 km, 98.7° (Epoch: 24 February)

Event Time Altitude Azimuth Distance (km) Brightness Sun altitude
Rises 07:15:01 0° 15° (NNE) 3,368 ? -9.9°
Reaches altitude 10° 07:17:23 10° 13° (NNE) 2,433 ? -9.6°
Maximum altitude 07:22:44 70° 291° (WNW) 879 ? -8.9°
Drops below altitude 10° 07:28:04 10° 209° (SSW) 2,421 ? -8.3°
Sets 07:30:25 0° 207° (SSW) 3,350 ? -8.0°
